Location: Bow
(51.5261°N, 0.0167°W)
Time: 22:58:52
(UTC+00:00)

CZ-2C R/B - Pass Details

Date: 18 September 2020
Orbit: 640 x 704 km, 98.4° (Epoch: 31 October)

Event Time Altitude Azimuth Distance (km) Brightness Sun altitude
Rises 19:58:17 0° 20° (NNE) 2,963 7.1 -17.5°
Reaches altitude 10° 20:00:36 10° 27° (NNE) 2,052 6.2 -17.9°
Maximum altitude 20:04:50 42° 99° (E) 929 4.0 -18.5°
Enters shadow 20:05:29 39° 122° (ESE) 970 4.0 -18.5°
